Station MBIN7 - Masonboro Island, NC (MSNB_S) Image indicating link to RSS feed of recent meteorological observations for station MBIN7


Conditions at MBIN7 as of
(10:30 am EDT)
1430 GMT on 07/23/2024:
     

Click on the graph icon in the table below to see a time series plot of the last five days of that observation.

5-day plot - Wind Direction Wind Direction (WDIR): S ( 190 deg true )
5-day plot - Wind Speed Wind Speed (WSPD): 8 kts
5-day plot - Wind Gust Wind Gust (GST): 13 kts
5-day plot - Atmospheric Pressure Atmospheric Pressure (PRES):30.11 in
5-day plot - Air Temperature Air Temperature (ATMP): 82.9 °F
5-day plot - Dew Point Dew Point (DEWP): 80.4 °F
5-day plot - Heat Index Heat Index (HEAT): 95.2 °F
5-day plot - Wind Speed at 10 Meters Wind Speed at 10 meters (WSPD10M): 10 kts
5-day plot - Wind Speed at 20 Meters Wind Speed at 20 meters (WSPD20M): 10 kts
5-day plot -  Wind Speed, Wind Gust and Atmospheric Pressure Combined plot of Wind Speed, Gust, and Air Pressure
Previous observations
TIME
(EDT)
5-day plot - Wind Direction
WDIR
 
5-day plot - Wind Speed
WSPD
kts
5-day plot - Wind Gust
GST
kts
5-day plot - Wave Height
WVHT
ft
5-day plot - Dominant Wave Period
DPD
sec
5-day plot - Average Wave Period
APD
sec
5-day plot - Mean Wave Direction
MWD
 
5-day plot - Atmospheric Pressure
PRES
in
5-day plot - Pressure Tendency
PTDY
in
5-day plot - Air Temperature
ATMP
°F
5-day plot - Water Temperature
WTMP
°F
5-day plot - Dew Point
DEWP
°F
5-day plot - Salinity
SAL
psu
5-day plot - Visibility
VIS
nmi
5-day plot - Tide (above MLLW)
TIDE
ft
2024-07-23 10:24 am S 7 10----30.11- 83.1- 80.4---
2024-07-23 10:18 am S 7 9----30.11- 83.5- 80.6---
2024-07-23 10:12 am S 7 9----30.11- 83.5- 80.6---
2024-07-23 10:06 am S 6 9----30.11- 83.8- 80.8---
2024-07-23 10:00 am S 5 9----30.11+0.02 83.8- 81.0---
2024-07-23 09:54 am S 5 8----30.11- 83.8- 81.0---
2024-07-23 09:48 am S 5 8----30.11- 83.7- 80.8---
2024-07-23 09:42 am S 5 8----30.11- 83.1- 80.6---
2024-07-23 09:36 am S 6 9----30.10- 82.9- 80.4---
2024-07-23 09:30 am S 5 8----30.11- 83.1- 80.6---
2024-07-23 09:24 am S 5 7----30.10- 83.3- 80.4---
2024-07-23 09:18 am S 4 7----30.10- 83.7- 80.6---
2024-07-23 09:12 am S 3 8----30.11- 83.8- 80.8---
2024-07-23 09:06 amSSW 3 5----30.11- 83.8- 80.8---
2024-07-23 09:00 am SW 4 6----30.11+0.03 83.3- 80.4---
2024-07-23 08:54 amSSW 3 6----30.11- 83.1- 80.6---
2024-07-23 08:48 amSSW 3 6----30.11- 82.9- 80.6---
2024-07-23 08:42 amSSW 4 6----30.11- 82.6- 80.4---
2024-07-23 08:36 am S 4 6----30.11- 82.6- 80.4---
2024-07-23 08:30 amSSW 3 5----30.11- 82.6- 80.2---
2024-07-23 08:24 am S 4 6----30.11- 82.2- 80.1---
2024-07-23 08:18 am S 3 5----30.11- 82.4- 80.1---
2024-07-23 08:12 am S 3 5----30.11- 82.0- 79.9---
2024-07-23 08:06 am S 3 5----30.11- 81.9- 79.7---
2024-07-23 08:00 am S 3 5----30.11+0.04 81.7- 79.5---
2024-07-23 07:54 am S 3 4----30.11- 81.5- 79.5---
2024-07-23 07:48 am S 3 4----30.11- 81.3- 79.5---
2024-07-23 07:42 am S 2 3----30.10- 81.0- 79.2---
2024-07-23 07:36 am S 2 3----30.10- 80.8- 79.0---
2024-07-23 07:30 am S 2 3----30.10- 80.8- 79.0---
2024-07-23 07:24 am- 0 2----30.10- 80.8- 79.3---
2024-07-23 07:18 am SW 1 2----30.10- 80.6- 79.0---
2024-07-23 07:12 am SW 1 2----30.10- 80.2- 78.6---
2024-07-23 07:06 amWSW 2 2----30.10- 79.9- 78.3---
2024-07-23 07:00 amWSW 2 2----30.09+0.04 79.7- 78.3---
2024-07-23 06:54 am W 2 3----30.09- 79.7- 78.3---
2024-07-23 06:48 am W 2 3----30.09- 79.7- 78.3---
2024-07-23 06:42 amWSW 2 3----30.09- 79.7- 78.3---
2024-07-23 06:36 am SW 2 3----30.09- 79.9- 78.3---
2024-07-23 06:30 am SW 2 2----30.09- 79.9- 78.4---
2024-07-23 06:24 amWSW 2 2----30.09- 79.9- 78.4---
2024-07-23 06:18 amWSW 2 3----30.09- 79.9- 78.4---
2024-07-23 06:12 amWSW 2 3----30.08- 79.9- 78.4---
2024-07-23 06:06 amWSW 2 3----30.08- 79.9- 78.4---
2024-07-23 06:00 amWSW 2 3----30.08+0.03 80.1- 78.6---
2024-07-23 05:54 amWSW 3 4----30.08- 80.2- 78.6---
2024-07-23 05:48 amWSW 3 4----30.08- 80.1- 78.6---
2024-07-23 05:42 amWSW 2 4----30.08- 80.1- 78.6---
2024-07-23 05:36 amWSW 2 3----30.08- 80.1- 78.6---
2024-07-23 05:30 amWSW 2 3----30.07- 80.2- 78.6---
2024-07-23 05:24 amWSW 2 3----30.07- 80.2- 78.8---
2024-07-23 05:18 amWSW 2 4----30.07- 80.4- 78.8---
2024-07-23 05:12 am SW 2 4----30.06- 80.4- 78.6---
2024-07-23 05:06 amWSW 2 3----30.06- 80.4- 78.6---
2024-07-23 05:00 amWSW 2 4----30.06+0.00 80.4- 78.6---
2024-07-23 04:54 amWSW 3 4----30.06- 80.6- 78.8---
2024-07-23 04:48 amWSW 3 4----30.06- 81.0- 79.2---
2024-07-23 04:42 am SW 3 5----30.06- 81.1- 79.2---
2024-07-23 04:36 am SW 4 6----30.06- 81.0- 79.0---
2024-07-23 04:30 amSSW 3 5----30.06- 80.6- 78.8---
2024-07-23 04:24 am SW 3 4----30.06- 80.6- 78.8---
2024-07-23 04:18 amWSW 3 5----30.06- 80.6- 78.8---
2024-07-23 04:12 am SW 3 5----30.06- 80.8- 79.0---
2024-07-23 04:06 am SW 3 5----30.06- 81.0- 79.2---
2024-07-23 04:00 am SW 3 5----30.06-0.02 81.0- 79.2---
2024-07-23 03:54 am SW 3 5----30.06- 81.1- 79.2---
2024-07-23 03:48 am SW 3 5----30.06- 81.1- 79.0---
2024-07-23 03:42 am SW 3 5----30.05- 81.3- 79.2---
2024-07-23 03:36 am SW 4 7----30.05- 81.1- 79.0---
2024-07-23 03:30 am SW 4 7----30.05- 81.1- 79.0---
2024-07-23 03:24 am SW 5 8----30.05- 81.3- 79.2---
2024-07-23 03:18 am SW 4 7----30.05- 81.3- 79.2---
2024-07-23 03:12 am SW 5 7----30.05- 81.3- 79.2---
2024-07-23 03:06 am SW 4 7----30.05- 81.3- 79.2---
2024-07-23 03:00 am SW 4 5----30.05-0.02 81.1- 78.8---
2024-07-23 02:54 am SW 3 5----30.06- 81.3- 78.8---
2024-07-23 02:48 am SW 3 6----30.06- 81.3- 78.8---
2024-07-23 02:42 am SW 4 7----30.06- 81.3- 78.8---
2024-07-23 02:36 am SW 4 6----30.06- 81.3- 78.8---
2024-07-23 02:30 am SW 4 6----30.06- 81.3- 78.8---
2024-07-23 02:24 am SW 3 6----30.06- 81.3- 78.8---
2024-07-23 02:18 am SW 3 5----30.06- 81.5- 78.6---
2024-07-23 02:12 am SW 4 5----30.06- 81.7- 78.8---
2024-07-23 02:06 am SW 4 8----30.06- 81.9- 78.8---
2024-07-23 02:00 am SW 4 7----30.06-0.02 81.9- 78.8---
2024-07-23 01:54 am SW 4 8----30.06- 81.9- 78.8---
2024-07-23 01:48 am SW 5 10----30.06- 81.9- 78.8---
2024-07-23 01:42 am SW 4 8----30.06- 81.9- 78.8---
2024-07-23 01:36 am SW 5 8----30.07- 81.9- 78.8---
2024-07-23 01:30 am SW 5 9----30.07- 82.0- 78.8---
2024-07-23 01:24 am SW 5 7----30.07- 82.0- 79.0---
2024-07-23 01:18 am SW 4 9----30.07- 82.0- 79.0---
2024-07-23 01:12 am SW 5 9----30.07- 82.2- 79.2---
2024-07-23 01:06 amWSW 6 9----30.08- 82.4- 79.2---
2024-07-23 01:00 am SW 5 8----30.07+0.01 82.2- 79.2---
2024-07-23 12:54 amWSW 4 7----30.08- 82.2- 79.2---
2024-07-23 12:48 amWSW 5 7----30.07- 82.2- 79.2---
2024-07-23 12:42 am SW 5 8----30.07- 82.2- 78.8---
2024-07-23 12:36 am SW 5 8----30.07- 82.4- 78.8---
2024-07-23 12:30 amWSW 6 9----30.07- 82.4- 79.0---
2024-07-23 12:24 amWSW 6 10----30.07- 82.4- 78.8---
2024-07-23 12:18 amWSW 6 10----30.08- 82.4- 79.0---
2024-07-23 12:12 amWSW 7 12----30.08- 82.6- 79.0---
2024-07-23 12:06 amWSW 7 12----30.08- 82.6- 79.2---
2024-07-23 12:00 amWSW 8 13----30.08+0.04 82.6- 79.0---
2024-07-22 11:54 pmWSW 6 11----30.08- 82.6- 79.2---
2024-07-22 11:48 pmWSW 6 9----30.08- 82.6- 79.2---
2024-07-22 11:42 pmWSW 6 9----30.08- 82.8- 79.0---
2024-07-22 11:36 pmWSW 6 10----30.08- 82.8- 79.0---
2024-07-22 11:30 pmWSW 7 13----30.08- 82.8- 79.0---
2024-07-22 11:24 pmWSW 8 15----30.08- 82.8- 79.0---
2024-07-22 11:18 pmWSW 8 13----30.09- 82.8- 79.0---
2024-07-22 11:12 pmWSW 8 14----30.08- 82.8- 79.2---
2024-07-22 11:06 pm SW 8 12----30.08- 82.8- 79.3---
2024-07-22 11:00 pm SW 7 11----30.08+0.06 82.8- 79.3---
2024-07-22 10:54 pm SW 7 11----30.08- 82.8- 79.2---
2024-07-22 10:48 pm SW 6 11----30.08- 82.6- 79.2---
2024-07-22 10:42 pm SW 6 11----30.07- 82.6- 79.0---
2024-07-22 10:36 pm SW 7 13----30.07- 82.6- 79.0---
2024-07-22 10:30 pm SW 6 10----30.07- 82.4- 78.8---
2024-07-22 10:24 pm SW 7 10----30.07- 82.4- 78.6---
2024-07-22 10:18 pm SW 7 11----30.07- 82.2- 78.6---
2024-07-22 10:12 pm SW 7 12----30.06- 82.2- 78.6---
2024-07-22 10:06 pm SW 7 11----30.06- 82.4- 78.6---
2024-07-22 10:00 pm SW 8 12----30.06+0.05 82.4- 78.6---
2024-07-22 09:54 pm SW 7 12----30.06- 82.4- 78.6---
2024-07-22 09:48 pm SW 7 11----30.05- 82.2- 78.6---
2024-07-22 09:42 pm SW 7 12----30.05- 82.0- 78.6---
2024-07-22 09:36 pm SW 7 11----30.04- 82.0- 78.6---
2024-07-22 09:30 pm SW 7 12----30.04- 82.0- 78.6---
2024-07-22 09:24 pm SW 7 13----30.04- 82.0- 78.6---
2024-07-22 09:18 pm SW 7 11----30.04- 82.0- 78.3---
2024-07-22 09:12 pm SW 6 11----30.04- 82.0- 78.3---
2024-07-22 09:06 pm SW 6 10----30.04- 82.0- 77.9---
2024-07-22 09:00 pm SW 6 10----30.04+0.03 82.0- 77.9---
2024-07-22 08:54 pm SW 6 11----30.03- 81.9- 77.7---
2024-07-22 08:48 pmWSW 6 10----30.03- 81.9- 77.7---
2024-07-22 08:42 pmWSW 6 10----30.03- 81.9- 77.7---
2024-07-22 08:36 pm SW 6 11----30.02- 81.9- 78.1---
2024-07-22 08:30 pm SW 6 9----30.02- 81.9- 78.3---
2024-07-22 08:24 pm SW 7 11----30.01- 81.9- 78.6---
2024-07-22 08:18 pm SW 6 10----30.02- 81.9- 78.8---
2024-07-22 08:12 pm SW 7 10----30.02- 82.0- 78.8---
2024-07-22 08:06 pm SW 8 12----30.02- 81.9- 78.8---
2024-07-22 08:00 pmSSW 8 13----30.02+0.01 81.9- 79.0---
2024-07-22 07:54 pmSSW 9 14----30.02- 82.0- 79.2---
2024-07-22 07:48 pm SW 9 13----30.02- 81.7- 79.0---
2024-07-22 07:42 pm SW 8 14----30.02- 81.3- 79.2---
2024-07-22 07:36 pmSSW 8 14----30.01- 81.5- 79.3---
2024-07-22 07:30 pmSSW 7 11----30.01- 81.5- 79.3---
2024-07-22 07:24 pmSSW 7 11----30.01- 81.7- 79.5---
2024-07-22 07:18 pmSSW 7 12----30.01- 81.7- 79.5---
2024-07-22 07:12 pmSSW 7 10----30.01- 81.7- 79.2---
2024-07-22 07:06 pmSSW 7 11----30.01- 81.9- 79.3---
2024-07-22 07:00 pm SW 7 11----30.01-0.01 81.9- 79.2---
2024-07-22 06:54 pm SW 7 12----30.01- 81.9- 79.0---
2024-07-22 06:48 pm SW 8 14----30.01- 81.7- 79.0---
2024-07-22 06:42 pmSSW 8 15----30.00- 81.9- 79.0---
2024-07-22 06:36 pmSSW 8 13----30.01- 82.2- 79.0---
2024-07-22 06:30 pmSSW 8 14----30.00- 82.2- 79.0---
2024-07-22 06:24 pmSSW 8 14----30.00- 82.4- 78.8---
2024-07-22 06:18 pmSSW 7 11----30.01- 82.6- 79.2---
2024-07-22 06:12 pmSSW 8 13----30.01- 82.6- 79.0---
2024-07-22 06:06 pmSSW 7 12----30.01- 82.8- 79.2---
2024-07-22 06:00 pmSSW 9 14----30.01-0.05 82.4- 78.8---
2024-07-22 05:54 pmSSW 9 15----30.01- 82.6- 79.0---
2024-07-22 05:48 pmSSW 8 13----30.01- 82.8- 79.3---
2024-07-22 05:42 pmSSW 9 13----30.01- 82.4- 79.0---
2024-07-22 05:36 pmSSW 8 13----30.01- 82.8- 79.2---
2024-07-22 05:30 pmSSW 8 12----30.01- 82.9- 79.3---
2024-07-22 05:24 pmSSW 8 13----30.01- 82.9- 79.2---
2024-07-22 05:18 pmSSW 8 14----30.01- 82.8- 79.0---
2024-07-22 05:12 pmSSW 8 14----30.01- 82.8- 78.8---
2024-07-22 05:06 pmSSW 8 15----30.01- 82.8- 78.8---
2024-07-22 05:00 pmSSW 8 14----30.01-0.04 82.9- 79.0---
2024-07-22 04:54 pmSSW 8 13----30.02- 83.1- 79.0---
2024-07-22 04:48 pmSSW 8 13----30.02- 82.9- 79.0---
2024-07-22 04:42 pmSSW 8 13----30.03- 82.8- 78.6---
2024-07-22 04:36 pmSSW 9 14----30.03- 82.4- 78.6---
2024-07-22 04:30 pmSSW 9 15----30.02- 82.4- 78.6---
2024-07-22 04:24 pmSSW 10 14----30.03- 82.6- 78.8---
2024-07-22 04:18 pmSSW 9 15----30.03- 82.8- 79.2---
2024-07-22 04:12 pmSSW 9 14----30.03- 82.8- 79.2---
2024-07-22 04:06 pmSSW 9 14----30.03- 82.8- 79.0---
2024-07-22 04:00 pmSSW 10 15----30.03-0.07 82.8- 79.0---
2024-07-22 03:54 pmSSW 9 13----30.03- 82.9- 79.2---
2024-07-22 03:48 pmSSW 8 13----30.03- 82.8- 79.2---
2024-07-22 03:42 pmSSW 9 14----30.03- 82.4- 78.4---
2024-07-22 03:36 pmSSW 9 13----30.04- 82.2- 78.4---
2024-07-22 03:30 pmSSW 8 12----30.04- 82.0- 77.9---
2024-07-22 03:24 pmSSW 7 12----30.05- 81.7- 77.7---
2024-07-22 03:18 pmSSW 7 12----30.06- 81.1- 77.4---
2024-07-22 03:12 pmSSW 7 12----30.05- 80.6- 76.8---
2024-07-22 03:06 pmSSW 6 10----30.06- 80.2- 76.5---
2024-07-22 03:00 pmSSW 7 12----30.06-0.03 79.7- 75.9---
2024-07-22 02:54 pm SW 8 13----30.06- 79.5- 75.7---
2024-07-22 02:48 pm SW 8 13----30.06- 79.2- 75.4---
2024-07-22 02:42 pmSSW 9 13----30.05- 78.8- 75.0---
2024-07-22 02:36 pm SW 8 14----30.06- 78.8- 75.2---
2024-07-22 02:30 pm SW 8 14----30.06- 78.8- 75.0---
2024-07-22 02:24 pm SW 9 15----30.06- 78.6- 74.8---
2024-07-22 02:18 pmSSW 9 14----30.05- 78.8- 74.8---
2024-07-22 02:12 pm SW 10 15----30.05- 79.0- 75.0---
2024-07-22 02:06 pm SW 10 15----30.06- 79.9- 75.7---
2024-07-22 02:00 pm SW 8 13----30.06-0.03 80.2- 76.1---
2024-07-22 01:54 pmSSW 8 12----30.06- 79.9- 75.7---
2024-07-22 01:48 pmSSW 8 13----30.05- 79.3- 75.4---
2024-07-22 01:42 pmSSW 9 13----30.06- 79.2- 76.1---
2024-07-22 01:36 pmSSW 9 14----30.06- 79.5- 76.6---
2024-07-22 01:30 pmSSW 8 13----30.07- 79.7- 77.0---
2024-07-22 01:24 pmSSW 9 14----30.07- 79.9- 77.0---
2024-07-22 01:18 pmSSW 9 16----30.08- 79.5- 76.3---
2024-07-22 01:12 pm SW 12 20----30.09- 79.7- 76.3---
2024-07-22 01:06 pmSSW 9 15----30.09- 79.9- 76.6---
2024-07-22 01:00 pmSSW 10 15----30.10+0.03 79.5- 77.2---
2024-07-22 12:54 pmSSW 9 14----30.10- 79.7- 77.9---
2024-07-22 12:48 pmSSW 10 15----30.09- 79.5- 77.7---
2024-07-22 12:42 pmSSW 11 16----30.09- 79.5- 77.5---
2024-07-22 12:36 pmSSW 10 16----30.09- 79.9- 77.5---
2024-07-22 12:30 pmSSW 10 15----30.10- 80.2- 77.4---
2024-07-22 12:24 pmSSW 8 13----30.10- 80.2- 77.0---
2024-07-22 12:18 pmSSW 10 16----30.10- 79.7- 76.8---
2024-07-22 12:12 pm S 9 14----30.10- 80.1- 77.7---
2024-07-22 12:06 pm S 9 13----30.09- 80.1- 77.4---
2024-07-22 12:00 pm S 8 12----30.09+0.01 80.1- 77.4---
2024-07-22 11:54 am S 8 12----30.09- 80.1- 77.5---
2024-07-22 11:48 am S 8 11----30.09- 80.1- 77.5---
2024-07-22 11:42 am S 8 11----30.09- 80.2- 77.7---
2024-07-22 11:36 am S 8 11----30.09- 80.6- 77.9---
2024-07-22 11:30 am S 7 10----30.09- 80.8- 77.9---
2024-07-22 11:24 am S 7 9----30.09- 81.0- 78.1---
2024-07-22 11:18 am S 6 9----30.10- 81.3- 78.4---
2024-07-22 11:12 am S 5 7----30.10- 81.1- 78.3---
2024-07-22 11:06 am S 6 7----30.09- 80.4- 77.5---
2024-07-22 11:00 am S 6 8----30.09+0.02 80.1- 77.2---
2024-07-22 10:54 am S 4 6----30.09- 79.7- 76.8---